PAB260 SBRF-GOBD

Flight info

Callsign PAB260
Flight time N/A
Altitude 21000
Route DOMDO UZ14 BUGAT UL206 KODOS/N0229F230 DCT 05N024W/N0234F250 08N022W DCT TURUP UA302 PIVSA PIVSA1V
Aircraft CONI/M-SDFY/C

Departure

Time 2026-05-04 14:12
Airport Recife/Guararapes - Gilberto Freyre International Airport (SBRF)

Arrival

Time N/A
Airport Blaise Diagne International Airport (GOBD)
Time Latitude Longitude Altitude Speed Heading
2026-05-04 14:07 -8.11598 -34.92708 43 ft 0 kts 161°
2026-05-04 14:10 -8.11599 -34.92708 43 ft 0 kts 162°
2026-05-04 14:11 -8.12021 -34.92564 44 ft 88 kts 157°
2026-05-04 14:11 -8.12703 -34.92340 149 ft 110 kts 160°
2026-05-04 14:12 -8.13457 -34.92097 412 ft 119 kts 160°
2026-05-04 14:12 -8.14247 -34.91847 775 ft 118 kts 160°
2026-05-04 14:12 -8.16001 -34.91315 1390 ft 143 kts 161°
2026-05-04 14:13 -8.16946 -34.90983 1814 ft 150 kts 158°
2026-05-04 14:13 -8.17983 -34.90589 1966 ft 168 kts 159°
2026-05-04 14:13 -8.19066 -34.90050 2098 ft 180 kts 141°
2026-05-04 14:13 -8.19807 -34.88998 2230 ft 192 kts 112°
2026-05-04 14:14 -8.19945 -34.87655 2358 ft 203 kts 85°
2026-05-04 14:14 -8.18376 -34.85195 2619 ft 220 kts 46°
2026-05-04 14:14 -8.17264 -34.84121 2746 ft 222 kts 48°
2026-05-04 14:15 -8.15272 -34.81723 3000 ft 224 kts 57°
2026-05-04 14:15 -8.13599 -34.79091 3251 ft 222 kts 63°
2026-05-04 14:16 -8.12096 -34.76398 3500 ft 218 kts 64°
2026-05-04 14:16 -8.11377 -34.75056 3624 ft 216 kts 65°
2026-05-04 14:17 -8.09971 -34.72397 3873 ft 213 kts 65°
2026-05-04 14:17 -8.09216 -34.71107 3998 ft 214 kts 60°
2026-05-04 14:17 -8.07529 -34.68646 4246 ft 213 kts 57°
2026-05-04 14:18 -8.06656 -34.67444 4370 ft 212 kts 57°
2026-05-04 14:18 -8.04910 -34.65079 4617 ft 209 kts 56°
2026-05-04 14:19 -8.03182 -34.62757 4855 ft 204 kts 57°
2026-05-04 14:19 -8.02336 -34.61616 4976 ft 202 kts 56°
2026-05-04 14:19 -8.01497 -34.60494 5101 ft 199 kts 56°
2026-05-04 14:19 -8.00668 -34.59386 5224 ft 197 kts 56°
2026-05-04 14:20 -7.99844 -34.58285 5347 ft 195 kts 56°
2026-05-04 14:20 -7.99030 -34.57197 5470 ft 194 kts 56°
2026-05-04 14:20 -7.98222 -34.56116 5594 ft 192 kts 56°
2026-05-04 14:21 -7.96626 -34.53981 5842 ft 189 kts 56°
2026-05-04 14:21 -7.95849 -34.52941 5964 ft 188 kts 56°
2026-05-04 14:21 -7.95056 -34.51879 6089 ft 187 kts 57°
2026-05-04 14:21 -7.94238 -34.50876 6214 ft 189 kts 51°
2026-05-04 14:22 -7.93315 -34.49913 6343 ft 193 kts 48°
2026-05-04 14:22 -7.92347 -34.48966 6469 ft 195 kts 47°
2026-05-04 14:22 -7.91357 -34.48020 6597 ft 197 kts 46°
2026-05-04 14:22 -7.90354 -34.47072 6723 ft 198 kts 46°
2026-05-04 14:23 -7.88323 -34.45175 6973 ft 200 kts 46°
2026-05-04 14:23 -7.87305 -34.44224 7100 ft 200 kts 45°
2026-05-04 14:23 -7.86280 -34.43270 7225 ft 200 kts 45°
2026-05-04 14:24 -7.85254 -34.42317 7350 ft 201 kts 45°
2026-05-04 14:24 -7.84227 -34.41365 7475 ft 200 kts 45°
2026-05-04 14:24 -7.83204 -34.40415 7600 ft 200 kts 45°
2026-05-04 14:24 -7.82179 -34.39464 7724 ft 200 kts 45°
2026-05-04 14:25 -7.81159 -34.38519 7810 ft 196 kts 45°
2026-05-04 14:25 -7.79090 -34.36595 8144 ft 217 kts 45°
2026-05-04 14:25 -7.77949 -34.35531 8291 ft 229 kts 45°
2026-05-04 14:26 -7.76743 -34.34411 8384 ft 242 kts 44°
2026-05-04 14:26 -7.75479 -34.33240 8439 ft 248 kts 44°
2026-05-04 14:26 -7.74226 -34.32086 8564 ft 240 kts 45°
2026-05-04 14:26 -7.73017 -34.30967 8685 ft 233 kts 45°
2026-05-04 14:27 -7.71837 -34.29875 8806 ft 227 kts 45°
2026-05-04 14:27 -7.70689 -34.28810 8928 ft 222 kts 45°
2026-05-04 14:27 -7.69561 -34.27763 9051 ft 219 kts 45°
2026-05-04 14:27 -7.68447 -34.26728 9174 ft 216 kts 45°
2026-05-04 14:28 -7.67347 -34.25707 9298 ft 214 kts 44°
2026-05-04 14:28 -7.66259 -34.24698 9421 ft 212 kts 44°
2026-05-04 14:28 -7.65181 -34.23698 9545 ft 210 kts 44°
2026-05-04 14:28 -7.64111 -34.22704 9669 ft 209 kts 44°
2026-05-04 14:29 -7.61972 -34.20721 9898 ft 209 kts 44°
2026-05-04 14:29 -7.59867 -34.18775 10160 ft 201 kts 44°
2026-05-04 14:30 -7.58850 -34.17835 10328 ft 198 kts 44°
2026-05-04 14:30 -7.57833 -34.16895 10474 ft 198 kts 44°
2026-05-04 14:30 -7.55801 -34.15006 10728 ft 199 kts 44°
2026-05-04 14:31 -7.54782 -34.14060 10853 ft 199 kts 43°
2026-05-04 14:31 -7.52741 -34.12171 11103 ft 199 kts 43°
2026-05-04 14:32 -7.50703 -34.10278 11353 ft 199 kts 43°
2026-05-04 14:32 -7.49682 -34.09331 11486 ft 208 kts 43°
2026-05-04 14:32 -7.48609 -34.08341 11714 ft 209 kts 42°
2026-05-04 14:32 -7.47508 -34.07322 11830 ft 224 kts 42°
2026-05-04 14:33 -7.46376 -34.06206 11930 ft 229 kts 46°
2026-05-04 14:33 -7.45326 -34.05027 12048 ft 224 kts 48°
2026-05-04 14:33 -7.44332 -34.03840 12169 ft 219 kts 50°
2026-05-04 14:33 -7.43377 -34.02662 12292 ft 215 kts 50°
2026-05-04 14:34 -7.42446 -34.01499 12414 ft 212 kts 51°
2026-05-04 14:34 -7.41536 -34.00349 12537 ft 208 kts 51°
2026-05-04 14:34 -7.40639 -33.99211 12659 ft 206 kts 51°
2026-05-04 14:34 -7.39755 -33.98086 12782 ft 204 kts 51°
2026-05-04 14:35 -7.38882 -33.96973 12905 ft 202 kts 51°
2026-05-04 14:35 -7.38016 -33.95868 13028 ft 200 kts 51°
2026-05-04 14:35 -7.37162 -33.94776 13129 ft 198 kts 51°
2026-05-04 14:35 -7.36313 -33.93692 13158 ft 198 kts 51°
2026-05-04 14:36 -7.35451 -33.92590 13187 ft 203 kts 51°
2026-05-04 14:36 -7.34571 -33.91464 13215 ft 206 kts 51°
2026-05-04 14:36 -7.33675 -33.90316 13239 ft 210 kts 52°
2026-05-04 14:36 -7.32771 -33.89153 13266 ft 212 kts 52°
2026-05-04 14:37 -7.31855 -33.87978 13292 ft 214 kts 52°
2026-05-04 14:37 -7.30931 -33.86794 13339 ft 215 kts 51°
2026-05-04 14:37 -7.30006 -33.85611 13413 ft 214 kts 51°
2026-05-04 14:37 -7.29095 -33.84448 13486 ft 214 kts 52°
2026-05-04 14:38 -7.28551 -33.83752 13530 ft 213 kts 52°
2026-05-04 14:38 -7.28202 -33.83306 13559 ft 213 kts 52°
2026-05-04 14:38 -7.27283 -33.82133 13633 ft 213 kts 52°
2026-05-04 14:39 -7.26368 -33.80963 13707 ft 212 kts 52°
2026-05-04 14:39 -7.25454 -33.79794 13782 ft 213 kts 52°
2026-05-04 14:39 -7.24540 -33.78625 13857 ft 212 kts 52°
2026-05-04 14:40 -7.22711 -33.76286 14007 ft 212 kts 52°
2026-05-04 14:40 -7.21799 -33.75120 14082 ft 212 kts 52°
2026-05-04 14:40 -7.20885 -33.73951 14157 ft 212 kts 52°
2026-05-04 14:40 -7.19974 -33.72786 14232 ft 212 kts 52°
2026-05-04 14:41 -7.19061 -33.71619 14306 ft 212 kts 52°
2026-05-04 14:41 -7.18151 -33.70456 14381 ft 212 kts 52°
2026-05-04 14:41 -7.16332 -33.68131 14532 ft 211 kts 52°
2026-05-04 14:42 -7.14520 -33.65814 14682 ft 210 kts 52°
2026-05-04 14:42 -7.13615 -33.64658 14757 ft 210 kts 52°
2026-05-04 14:42 -7.12712 -33.63504 14832 ft 210 kts 52°
2026-05-04 14:43 -7.11809 -33.62350 14907 ft 210 kts 52°
2026-05-04 14:43 -7.10903 -33.61192 14983 ft 211 kts 52°
2026-05-04 14:43 -7.09995 -33.60031 15058 ft 212 kts 52°
2026-05-04 14:43 -7.09083 -33.58865 15134 ft 212 kts 52°
2026-05-04 14:44 -7.08168 -33.57696 15209 ft 213 kts 52°
2026-05-04 14:44 -7.07253 -33.56526 15284 ft 213 kts 52°
2026-05-04 14:44 -7.06334 -33.55352 15360 ft 213 kts 52°
2026-05-04 14:44 -7.05417 -33.54180 15435 ft 213 kts 52°
2026-05-04 14:45 -7.04509 -33.53021 15509 ft 214 kts 52°
2026-05-04 14:45 -7.03591 -33.51847 15584 ft 213 kts 52°
2026-05-04 14:45 -7.02673 -33.50674 15659 ft 213 kts 52°
2026-05-04 14:45 -7.01754 -33.49500 15734 ft 213 kts 52°
2026-05-04 14:46 -7.00836 -33.48328 15809 ft 213 kts 52°
2026-05-04 14:46 -6.99919 -33.47157 15884 ft 213 kts 52°
2026-05-04 14:46 -6.99001 -33.45986 15959 ft 213 kts 52°
2026-05-04 14:46 -6.98087 -33.44819 16026 ft 211 kts 52°
2026-05-04 14:47 -6.97179 -33.43660 16142 ft 210 kts 52°
2026-05-04 14:47 -6.96283 -33.42515 16223 ft 208 kts 52°
2026-05-04 14:47 -6.95389 -33.41374 16349 ft 207 kts 52°
2026-05-04 14:47 -6.94500 -33.40237 16459 ft 206 kts 52°
2026-05-04 14:48 -6.93608 -33.39097 16539 ft 208 kts 52°
2026-05-04 14:48 -6.92709 -33.37950 16615 ft 209 kts 52°
2026-05-04 14:48 -6.91805 -33.36797 16691 ft 210 kts 52°
2026-05-04 14:48 -6.90896 -33.35637 16767 ft 211 kts 52°
2026-05-04 14:49 -6.89985 -33.34474 16843 ft 212 kts 52°
2026-05-04 14:49 -6.89070 -33.33306 16918 ft 213 kts 52°
2026-05-04 14:49 -6.88154 -33.32138 16993 ft 213 kts 52°
2026-05-04 14:49 -6.87235 -33.30966 17069 ft 213 kts 52°
2026-05-04 14:50 -6.86626 -33.30189 17119 ft 213 kts 52°
2026-05-04 14:50 -6.85707 -33.29017 17194 ft 213 kts 52°
2026-05-04 14:50 -6.84788 -33.27844 17269 ft 213 kts 53°
2026-05-04 14:50 -6.83868 -33.26670 17344 ft 213 kts 53°
2026-05-04 14:51 -6.82948 -33.25497 17418 ft 213 kts 53°
2026-05-04 14:51 -6.82029 -33.24326 17493 ft 213 kts 53°
2026-05-04 14:51 -6.81111 -33.23156 17568 ft 213 kts 53°
2026-05-04 14:51 -6.79894 -33.21603 17667 ft 214 kts 53°
2026-05-04 14:52 -6.79270 -33.20807 17719 ft 215 kts 53°
2026-05-04 14:52 -6.78337 -33.19618 17796 ft 218 kts 53°
2026-05-04 14:52 -6.77396 -33.18418 17872 ft 219 kts 53°
2026-05-04 14:52 -6.76446 -33.17206 17948 ft 221 kts 53°
2026-05-04 14:53 -6.75491 -33.15989 18024 ft 222 kts 53°
2026-05-04 14:53 -6.74531 -33.14766 18100 ft 224 kts 53°
2026-05-04 14:53 -6.73564 -33.13533 18175 ft 224 kts 53°
2026-05-04 14:53 -6.72595 -33.12298 18251 ft 225 kts 53°
2026-05-04 14:54 -6.71622 -33.11058 18327 ft 226 kts 52°
2026-05-04 14:54 -6.70661 -33.09833 18401 ft 226 kts 52°
2026-05-04 14:54 -6.69687 -33.08592 18476 ft 227 kts 52°
2026-05-04 14:54 -6.68705 -33.07342 18552 ft 227 kts 52°
2026-05-04 14:55 -6.67726 -33.06094 18627 ft 227 kts 52°
2026-05-04 14:55 -6.66745 -33.04845 18702 ft 228 kts 52°
2026-05-04 14:55 -6.65765 -33.03596 18777 ft 228 kts 52°
2026-05-04 14:55 -6.64783 -33.02346 18852 ft 228 kts 52°
2026-05-04 14:56 -6.63802 -33.01096 18927 ft 228 kts 52°
2026-05-04 14:56 -6.62821 -32.99847 19002 ft 228 kts 52°
2026-05-04 14:56 -6.61839 -32.98597 19077 ft 227 kts 52°
2026-05-04 14:56 -6.60860 -32.97350 19153 ft 227 kts 52°
2026-05-04 14:57 -6.59881 -32.96103 19228 ft 227 kts 52°
2026-05-04 14:57 -6.58902 -32.94857 19303 ft 227 kts 52°
2026-05-04 14:57 -6.57926 -32.93614 19377 ft 226 kts 52°
2026-05-04 14:57 -6.56950 -32.92372 19452 ft 226 kts 52°
2026-05-04 14:58 -6.55976 -32.91132 19527 ft 226 kts 52°
2026-05-04 14:58 -6.55002 -32.89893 19602 ft 226 kts 52°
2026-05-04 14:58 -6.54031 -32.88656 19676 ft 225 kts 52°
2026-05-04 14:58 -6.53058 -32.87418 19751 ft 225 kts 52°
2026-05-04 14:59 -6.52090 -32.86186 19826 ft 225 kts 52°
2026-05-04 14:59 -6.51122 -32.84955 19901 ft 224 kts 52°
2026-05-04 14:59 -6.49193 -32.82500 20050 ft 223 kts 52°
2026-05-04 15:00 -6.48231 -32.81276 20125 ft 223 kts 52°
2026-05-04 15:00 -6.47270 -32.80054 20198 ft 223 kts 52°
2026-05-04 15:00 -6.46314 -32.78836 20273 ft 222 kts 52°
2026-05-04 15:01 -6.44413 -32.76419 20416 ft 222 kts 52°
2026-05-04 15:01 -6.43456 -32.75204 20493 ft 221 kts 52°
2026-05-04 15:01 -6.42502 -32.73993 20554 ft 221 kts 52°
2026-05-04 15:01 -6.41548 -32.72780 20626 ft 221 kts 52°
2026-05-04 15:02 -6.40597 -32.71572 20694 ft 221 kts 52°
2026-05-04 15:02 -6.39646 -32.70361 20765 ft 220 kts 52°
2026-05-04 15:02 -6.38699 -32.69149 20846 ft 222 kts 52°
2026-05-04 15:02 -6.37724 -32.67903 20977 ft 233 kts 53°
2026-05-04 15:03 -6.36685 -32.66573 20793 ft 244 kts 52°
2026-05-04 15:03 -6.35647 -32.65251 20912 ft 239 kts 52°
2026-05-04 15:03 -6.34626 -32.63955 21011 ft 235 kts 52°
2026-05-04 15:03 -6.33619 -32.62679 21070 ft 232 kts 52°
2026-05-04 15:04 -6.32609 -32.61402 21043 ft 235 kts 52°
2026-05-04 15:04 -6.31586 -32.60105 21012 ft 238 kts 52°
2026-05-04 15:04 -6.30552 -32.58793 20997 ft 241 kts 52°
2026-05-04 15:04 -6.29503 -32.57461 20993 ft 244 kts 52°
2026-05-04 15:05 -6.28444 -32.56118 20993 ft 246 kts 52°
2026-05-04 15:05 -6.27379 -32.54765 20993 ft 247 kts 52°
2026-05-04 15:05 -6.26309 -32.53407 20992 ft 248 kts 52°
2026-05-04 15:05 -6.25235 -32.52043 20989 ft 249 kts 52°
2026-05-04 15:06 -6.24160 -32.50678 20990 ft 250 kts 52°
2026-05-04 15:06 -6.23079 -32.49307 20990 ft 250 kts 52°
2026-05-04 15:06 -6.21997 -32.47932 20990 ft 251 kts 52°
2026-05-04 15:07 -6.19823 -32.45172 20992 ft 252 kts 52°
2026-05-04 15:07 -6.18731 -32.43786 20992 ft 253 kts 52°
2026-05-04 15:07 -6.17638 -32.42398 20991 ft 254 kts 52°
2026-05-04 15:07 -6.16542 -32.41007 20991 ft 254 kts 52°
2026-05-04 15:08 -6.15445 -32.39613 20991 ft 255 kts 52°
2026-05-04 15:08 -6.14342 -32.38214 20991 ft 255 kts 52°
2026-05-04 15:08 -6.13238 -32.36812 20991 ft 256 kts 52°
2026-05-04 15:08 -6.12134 -32.35410 20987 ft 257 kts 52°
2026-05-04 15:09 -6.11038 -32.34020 20989 ft 257 kts 52°
2026-05-04 15:09 -6.09928 -32.32611 20983 ft 258 kts 52°
2026-05-04 15:09 -6.08813 -32.31197 20976 ft 259 kts 52°
2026-05-04 15:10 -6.06577 -32.28360 20973 ft 259 kts 52°
2026-05-04 15:10 -6.05456 -32.26937 20973 ft 260 kts 52°
2026-05-04 15:10 -6.03208 -32.24086 20975 ft 260 kts 52°
2026-05-04 15:11 -6.02082 -32.22658 20974 ft 261 kts 52°
2026-05-04 15:11 -6.00955 -32.21229 20972 ft 261 kts 52°
2026-05-04 15:11 -5.99825 -32.19796 20972 ft 262 kts 52°
2026-05-04 15:11 -5.98696 -32.18365 20972 ft 262 kts 52°
2026-05-04 15:12 -5.97565 -32.16930 20972 ft 262 kts 52°
2026-05-04 15:12 -5.96429 -32.15490 20972 ft 263 kts 52°
2026-05-04 15:12 -5.95296 -32.14053 20972 ft 263 kts 52°
2026-05-04 15:12 -5.94155 -32.12608 20972 ft 264 kts 52°
2026-05-04 15:13 -5.93012 -32.11160 20972 ft 265 kts 52°
2026-05-04 15:13 -5.91863 -32.09703 20971 ft 266 kts 52°
2026-05-04 15:13 -5.90712 -32.08244 20971 ft 267 kts 52°
2026-05-04 15:13 -5.89556 -32.06779 20970 ft 268 kts 52°
2026-05-04 15:14 -5.88397 -32.05311 20970 ft 269 kts 52°
2026-05-04 15:14 -5.87237 -32.03841 20970 ft 269 kts 52°
2026-05-04 15:14 -5.86070 -32.02362 20970 ft 270 kts 52°
2026-05-04 15:14 -5.84902 -32.00884 20972 ft 270 kts 52°
2026-05-04 15:15 -5.83733 -31.99402 20978 ft 271 kts 52°
2026-05-04 15:15 -5.82561 -31.97914 20967 ft 272 kts 52°
2026-05-04 15:15 -5.81384 -31.96425 20974 ft 273 kts 52°
2026-05-04 15:16 -5.79006 -31.93443 20969 ft 274 kts 52°
2026-05-04 15:16 -5.77809 -31.91947 20969 ft 275 kts 52°
2026-05-04 15:16 -5.75411 -31.88953 20972 ft 276 kts 52°
2026-05-04 15:17 -5.74206 -31.87450 20970 ft 276 kts 52°
2026-05-04 15:17 -5.71806 -31.84459 20982 ft 277 kts 51°
2026-05-04 15:17 -5.70580 -31.82932 20980 ft 277 kts 51°
2026-05-04 15:18 -5.69384 -31.81444 20983 ft 278 kts 52°
2026-05-04 15:18 -5.68153 -31.79913 20982 ft 278 kts 51°
2026-05-04 15:18 -5.66936 -31.78405 20983 ft 278 kts 51°
2026-05-04 15:19 -5.64518 -31.75391 20971 ft 280 kts 52°
2026-05-04 15:19 -5.63298 -31.73869 20966 ft 280 kts 52°
2026-05-04 15:19 -5.60850 -31.70814 20968 ft 281 kts 52°
2026-05-04 15:20 -5.59624 -31.69285 20968 ft 281 kts 52°
2026-05-04 15:20 -5.58398 -31.67756 20968 ft 282 kts 52°
2026-05-04 15:20 -5.57169 -31.66224 20968 ft 282 kts 52°
2026-05-04 15:20 -5.55938 -31.64690 20956 ft 283 kts 51°
2026-05-04 15:21 -5.54705 -31.63158 20985 ft 282 kts 52°
2026-05-04 15:21 -5.53475 -31.61624 20975 ft 283 kts 52°
2026-05-04 15:21 -5.50880 -31.58399 20934 ft 311 kts 51°
2026-05-04 15:22 -5.49507 -31.56686 20889 ft 318 kts 52°
2026-05-04 15:22 -5.48108 -31.54941 20912 ft 323 kts 51°
2026-05-04 15:22 -5.45333 -31.51475 21012 ft 314 kts 52°
2026-05-04 15:23 -5.43971 -31.49778 20982 ft 311 kts 52°
2026-05-04 15:23 -5.42615 -31.48093 20970 ft 309 kts 52°
2026-05-04 15:23 -5.41272 -31.46425 20967 ft 306 kts 52°
2026-05-04 15:23 -5.39939 -31.44769 20966 ft 304 kts 52°
2026-05-04 15:24 -5.37298 -31.41488 20966 ft 300 kts 52°
2026-05-04 15:24 -5.34692 -31.38240 20970 ft 298 kts 52°
2026-05-04 15:25 -5.33390 -31.36627 20970 ft 297 kts 52°
2026-05-04 15:25 -5.32094 -31.35017 20963 ft 296 kts 52°
2026-05-04 15:25 -5.30804 -31.33414 20968 ft 295 kts 51°
2026-05-04 15:26 -5.28228 -31.30221 20968 ft 293 kts 52°
2026-05-04 15:26 -5.26945 -31.28630 20957 ft 293 kts 52°
2026-05-04 15:26 -5.24387 -31.25455 20962 ft 292 kts 52°
2026-05-04 15:27 -5.23112 -31.23869 20963 ft 292 kts 52°
2026-05-04 15:27 -5.20566 -31.20698 20960 ft 292 kts 52°
2026-05-04 15:28 -5.18017 -31.17524 20964 ft 292 kts 52°
2026-05-04 15:28 -5.16744 -31.15941 20962 ft 292 kts 52°
2026-05-04 15:28 -5.14198 -31.12776 20967 ft 291 kts 52°
2026-05-04 15:29 -5.12940 -31.11211 20962 ft 292 kts 52°
2026-05-04 15:30 -5.07843 -31.04878 21022 ft 288 kts 52°
2026-05-04 15:30 -5.04134 -31.00270 21080 ft 282 kts 52°
2026-05-04 15:31 -5.01651 -30.97197 20991 ft 285 kts 52°
2026-05-04 15:31 -5.00396 -30.95647 20950 ft 287 kts 52°
2026-05-04 15:32 -4.96626 -30.90973 20961 ft 287 kts 52°
2026-05-04 15:32 -4.94112 -30.87848 20961 ft 288 kts 52°
2026-05-04 15:33 -4.91594 -30.84724 20963 ft 288 kts 52°
2026-05-04 15:34 -4.87808 -30.80022 20961 ft 289 kts 52°
2026-05-04 15:34 -4.86547 -30.78457 20960 ft 289 kts 52°
2026-05-04 15:34 -4.84017 -30.75318 20960 ft 289 kts 52°
2026-05-04 15:35 -4.81485 -30.72174 20944 ft 290 kts 52°
2026-05-04 15:35 -4.80217 -30.70600 20958 ft 290 kts 52°
2026-05-04 15:35 -4.78948 -30.69029 20959 ft 290 kts 52°
2026-05-04 15:36 -4.76417 -30.65886 20963 ft 290 kts 52°
2026-05-04 15:36 -4.75152 -30.64319 20965 ft 289 kts 52°
2026-05-04 15:36 -4.73885 -30.62752 20973 ft 289 kts 52°
2026-05-04 15:37 -4.72623 -30.61190 20970 ft 289 kts 52°
2026-05-04 15:37 -4.71787 -30.60151 20957 ft 289 kts 52°
2026-05-04 15:37 -4.70520 -30.58579 20956 ft 289 kts 52°
2026-05-04 15:37 -4.69255 -30.57010 20959 ft 290 kts 52°
2026-05-04 15:38 -4.67986 -30.55438 20960 ft 290 kts 52°
2026-05-04 15:38 -4.66308 -30.53360 20961 ft 290 kts 52°
2026-05-04 15:38 -4.65041 -30.51789 20961 ft 290 kts 52°
2026-05-04 15:38 -4.64184 -30.50728 20961 ft 290 kts 52°
2026-05-04 15:39 -4.62914 -30.49155 20960 ft 290 kts 52°
2026-05-04 15:39 -4.61644 -30.47581 20960 ft 290 kts 52°
2026-05-04 15:39 -4.59119 -30.44454 20961 ft 291 kts 52°
2026-05-04 15:40 -4.57831 -30.42859 20964 ft 290 kts 52°
2026-05-04 15:40 -4.56575 -30.41302 20964 ft 291 kts 52°
2026-05-04 15:40 -4.55308 -30.39732 20967 ft 289 kts 52°
2026-05-04 15:40 -4.54037 -30.38156 20939 ft 292 kts 52°
2026-05-04 15:41 -4.52760 -30.36575 20947 ft 291 kts 52°
2026-05-04 15:41 -4.51495 -30.35006 20976 ft 289 kts 52°
2026-05-04 15:41 -4.50230 -30.33435 21055 ft 291 kts 52°
2026-05-04 15:41 -4.48958 -30.31862 21041 ft 292 kts 52°
2026-05-04 15:42 -4.47665 -30.30264 21033 ft 295 kts 52°
2026-05-04 15:42 -4.46367 -30.28663 20994 ft 296 kts 52°
2026-05-04 15:42 -4.45070 -30.27059 20970 ft 297 kts 52°
2026-05-04 15:42 -4.43772 -30.25453 20963 ft 296 kts 52°
2026-05-04 15:43 -4.42477 -30.23851 20960 ft 296 kts 52°
2026-05-04 15:43 -4.41184 -30.22250 20958 ft 295 kts 52°
2026-05-04 15:43 -4.39891 -30.20648 20959 ft 295 kts 52°
2026-05-04 15:43 -4.38602 -30.19053 20963 ft 295 kts 52°
2026-05-04 15:44 -4.37313 -30.17458 20961 ft 294 kts 52°
2026-05-04 15:44 -4.36025 -30.15864 20961 ft 294 kts 52°
2026-05-04 15:44 -4.34738 -30.14272 20961 ft 294 kts 52°
2026-05-04 15:44 -4.33450 -30.12680 20961 ft 294 kts 52°
2026-05-04 15:45 -4.32166 -30.11090 20960 ft 294 kts 52°
2026-05-04 15:45 -4.30881 -30.09501 20961 ft 293 kts 52°
2026-05-04 15:45 -4.29613 -30.07933 20959 ft 293 kts 52°
2026-05-04 15:45 -4.28331 -30.06346 20959 ft 293 kts 52°
2026-05-04 15:46 -4.27045 -30.04757 20960 ft 293 kts 52°
2026-05-04 15:46 -4.25763 -30.03170 20960 ft 293 kts 52°
2026-05-04 15:46 -4.24480 -30.01586 20963 ft 293 kts 52°
2026-05-04 15:46 -4.23197 -30.00001 20957 ft 293 kts 52°
2026-05-04 15:47 -4.21915 -29.98418 20966 ft 292 kts 52°
2026-05-04 15:47 -4.20632 -29.96835 20962 ft 292 kts 52°
2026-05-04 15:47 -4.19353 -29.95254 20964 ft 292 kts 52°
2026-05-04 15:47 -4.18072 -29.93675 20971 ft 292 kts 52°
2026-05-04 15:48 -4.16795 -29.92096 20965 ft 292 kts 52°
2026-05-04 15:48 -4.15516 -29.90512 20962 ft 292 kts 52°
2026-05-04 15:48 -4.12955 -29.87342 20961 ft 293 kts 52°
2026-05-04 15:49 -4.11675 -29.85760 20961 ft 293 kts 52°
2026-05-04 15:49 -4.10393 -29.84175 20967 ft 292 kts 52°
2026-05-04 15:49 -4.09115 -29.82595 20964 ft 292 kts 52°
2026-05-04 15:49 -4.07833 -29.81009 20961 ft 293 kts 52°
2026-05-04 15:50 -4.06552 -29.79426 20961 ft 293 kts 52°
2026-05-04 15:50 -4.05271 -29.77843 20961 ft 293 kts 52°
2026-05-04 15:50 -4.03989 -29.76258 20961 ft 293 kts 52°
2026-05-04 15:50 -4.02709 -29.74676 20961 ft 293 kts 52°
2026-05-04 15:51 -4.01427 -29.73098 20995 ft 289 kts 52°
2026-05-04 15:51 -4.00166 -29.71543 21032 ft 285 kts 52°
2026-05-04 15:51 -3.98910 -29.69992 21220 ft 291 kts 52°
2026-05-04 15:51 -3.97602 -29.68361 21090 ft 310 kts 52°
2026-05-04 15:52 -3.96220 -29.66634 20865 ft 326 kts 52°
2026-05-04 15:52 -3.94776 -29.64852 20800 ft 330 kts 52°
2026-05-04 15:52 -3.93346 -29.63090 20867 ft 322 kts 52°
2026-05-04 15:52 -3.91949 -29.61369 20926 ft 315 kts 52°
2026-05-04 15:53 -3.90570 -29.59677 20946 ft 311 kts 51°
2026-05-04 15:53 -3.89208 -29.58008 20951 ft 308 kts 52°
2026-05-04 15:53 -3.87862 -29.56351 20957 ft 305 kts 52°
2026-05-04 15:53 -3.86528 -29.54704 20959 ft 303 kts 52°
2026-05-04 15:54 -3.85203 -29.53067 20957 ft 302 kts 52°
2026-05-04 15:54 -3.83885 -29.51438 20962 ft 300 kts 52°
2026-05-04 15:54 -3.82573 -29.49816 20960 ft 299 kts 52°
2026-05-04 15:54 -3.81264 -29.48201 20962 ft 298 kts 52°
2026-05-04 15:55 -3.79959 -29.46597 20974 ft 297 kts 52°
2026-05-04 15:55 -3.78657 -29.44990 20957 ft 297 kts 52°
2026-05-04 15:55 -3.77365 -29.43386 21011 ft 299 kts 52°
2026-05-04 15:55 -3.76027 -29.41722 20927 ft 315 kts 52°
2026-05-04 15:56 -3.74630 -29.39995 20836 ft 318 kts 52°
2026-05-04 15:56 -3.73249 -29.38292 20897 ft 312 kts 52°
2026-05-04 15:56 -3.71892 -29.36619 20947 ft 308 kts 52°
2026-05-04 15:56 -3.70546 -29.34964 20953 ft 305 kts 52°
2026-05-04 15:57 -3.69211 -29.33320 20958 ft 303 kts 52°
2026-05-04 15:57 -3.67886 -29.31686 20960 ft 301 kts 52°
2026-05-04 15:57 -3.66568 -29.30059 20963 ft 300 kts 52°
2026-05-04 15:57 -3.65258 -29.28441 20963 ft 299 kts 52°
2026-05-04 15:58 -3.63942 -29.26867 20961 ft 298 kts 48°
2026-05-04 15:58 -3.62419 -29.25416 20962 ft 298 kts 42°
2026-05-04 15:58 -3.60825 -29.24130 20961 ft 298 kts 39°
2026-05-04 15:58 -3.59158 -29.22905 20964 ft 298 kts 37°
2026-05-04 15:59 -3.57458 -29.21725 20961 ft 297 kts 36°
2026-05-04 15:59 -3.55740 -29.20573 20960 ft 297 kts 35°
2026-05-04 15:59 -3.54011 -29.19438 20960 ft 297 kts 34°
2026-05-04 15:59 -3.52279 -29.18316 20961 ft 296 kts 34°
2026-05-04 16:00 -3.50546 -29.17204 20960 ft 296 kts 34°
2026-05-04 16:00 -3.48806 -29.16094 20960 ft 296 kts 34°
2026-05-04 16:00 -3.47069 -29.14991 20960 ft 296 kts 34°
2026-05-04 16:00 -3.45329 -29.13888 20960 ft 296 kts 34°
2026-05-04 16:01 -3.43590 -29.12789 20960 ft 296 kts 33°
2026-05-04 16:01 -3.41852 -29.11691 20959 ft 296 kts 33°
2026-05-04 16:01 -3.40111 -29.10593 20960 ft 295 kts 33°
2026-05-04 16:01 -3.38373 -29.09496 20960 ft 295 kts 33°
2026-05-04 16:02 -3.36634 -29.08401 20960 ft 295 kts 34°
2026-05-04 16:02 -3.34893 -29.07305 20960 ft 295 kts 34°
2026-05-04 16:02 -3.31418 -29.05116 20960 ft 295 kts 34°
2026-05-04 16:03 -3.29679 -29.04021 20960 ft 295 kts 34°
2026-05-04 16:03 -3.27943 -29.02928 20960 ft 295 kts 34°
2026-05-04 16:03 -3.26205 -29.01834 20959 ft 295 kts 34°
2026-05-04 16:03 -3.24470 -29.00742 20959 ft 295 kts 34°
2026-05-04 16:04 -3.22732 -28.99649 20959 ft 295 kts 34°
2026-05-04 16:04 -3.19261 -28.97464 20961 ft 295 kts 34°
2026-05-04 16:04 -3.17526 -28.96372 20960 ft 295 kts 34°
2026-05-04 16:05 -3.15813 -28.95294 20960 ft 295 kts 34°
2026-05-04 16:05 -3.14079 -28.94203 20960 ft 295 kts 34°
2026-05-04 16:05 -3.10609 -28.92019 20959 ft 295 kts 34°
2026-05-04 16:06 -3.08875 -28.90928 20960 ft 295 kts 34°
2026-05-04 16:06 -3.04257 -28.88022 20959 ft 294 kts 34°
2026-05-04 16:07 -3.01941 -28.86565 20957 ft 294 kts 34°
2026-05-04 16:07 -2.96740 -28.83291 20954 ft 294 kts 34°
2026-05-04 16:08 -2.95009 -28.82201 20956 ft 294 kts 34°
2026-05-04 16:08 -2.89813 -28.78931 20959 ft 294 kts 34°
2026-05-04 16:09 -2.86351 -28.76752 20958 ft 294 kts 34°
2026-05-04 16:09 -2.82889 -28.74573 20958 ft 294 kts 34°
2026-05-04 16:10 -2.79427 -28.72394 20956 ft 294 kts 34°
2026-05-04 16:11 -2.74235 -28.69127 20958 ft 294 kts 34°
2026-05-04 16:11 -2.72505 -28.68038 20958 ft 294 kts 34°
2026-05-04 16:12 -2.67314 -28.64772 20958 ft 294 kts 34°
2026-05-04 16:12 -2.62124 -28.61506 20958 ft 294 kts 34°
2026-05-04 16:13 -2.58663 -28.59329 20958 ft 294 kts 34°
2026-05-04 16:13 -2.55206 -28.57156 20965 ft 294 kts 34°
2026-05-04 16:14 -2.51743 -28.54980 20952 ft 294 kts 34°
2026-05-04 16:14 -2.48311 -28.52820 20957 ft 293 kts 34°
2026-05-04 16:15 -2.43134 -28.49562 20959 ft 293 kts 34°
2026-05-04 16:16 -2.39685 -28.47391 20958 ft 293 kts 34°
2026-05-04 16:16 -2.34511 -28.44137 20958 ft 293 kts 34°
2026-05-04 16:17 -2.31057 -28.41966 20958 ft 293 kts 34°
2026-05-04 16:18 -2.25877 -28.38708 20957 ft 293 kts 34°
2026-05-04 16:18 -2.24153 -28.37625 20957 ft 293 kts 34°
2026-05-04 16:19 -2.18975 -28.34370 20965 ft 293 kts 34°
2026-05-04 16:19 -2.15554 -28.32219 21095 ft 288 kts 34°
2026-05-04 16:20 -2.10532 -28.29064 21316 ft 280 kts 34°
2026-05-04 16:20 -2.07258 -28.27008 21464 ft 276 kts 34°
2026-05-04 16:21 -2.02451 -28.23987 21683 ft 269 kts 34°
2026-05-04 16:22 -1.99313 -28.22015 21829 ft 264 kts 34°
2026-05-04 16:22 -1.94722 -28.19129 22039 ft 258 kts 34°
2026-05-04 16:23 -1.90223 -28.16302 22260 ft 251 kts 34°
2026-05-04 16:24 -1.84407 -28.12647 22553 ft 243 kts 33°
2026-05-04 16:25 -1.81575 -28.10867 22696 ft 238 kts 33°
2026-05-04 16:26 -1.76057 -28.07400 22946 ft 231 kts 33°
2026-05-04 16:26 -1.72409 -28.05108 22958 ft 234 kts 33°
2026-05-04 16:27 -1.69628 -28.03360 22959 ft 238 kts 33°
2026-05-04 16:28 -1.65380 -28.00691 22959 ft 243 kts 33°
2026-05-04 16:28 -1.61047 -27.97969 22959 ft 248 kts 33°
2026-05-04 16:29 -1.55143 -27.94261 22958 ft 253 kts 33°
2026-05-04 16:30 -1.50651 -27.91439 22958 ft 257 kts 33°
2026-05-04 16:31 -1.47602 -27.89524 22959 ft 260 kts 33°
2026-05-04 16:31 -1.42975 -27.86619 22960 ft 264 kts 33°
2026-05-04 16:32 -1.38286 -27.83675 22958 ft 267 kts 33°
2026-05-04 16:33 -1.35131 -27.81693 22959 ft 269 kts 33°
2026-05-04 16:33 -1.31952 -27.79698 22959 ft 271 kts 33°
2026-05-04 16:34 -1.28747 -27.77685 22959 ft 273 kts 33°
2026-05-04 16:34 -1.27138 -27.76675 22958 ft 274 kts 33°
2026-05-04 16:35 -1.22282 -27.73626 22958 ft 276 kts 33°
2026-05-04 16:35 -1.17380 -27.70548 22958 ft 278 kts 33°
2026-05-04 16:36 -1.15738 -27.69517 22959 ft 279 kts 33°
2026-05-04 16:36 -1.12442 -27.67447 22958 ft 281 kts 33°
2026-05-04 16:37 -1.09129 -27.65367 22958 ft 282 kts 33°
2026-05-04 16:37 -1.07467 -27.64324 22958 ft 282 kts 33°
2026-05-04 16:37 -1.04133 -27.62231 22958 ft 284 kts 33°
2026-05-04 16:38 -1.00782 -27.60128 22958 ft 285 kts 34°
2026-05-04 16:39 -0.95757 -27.56973 22958 ft 286 kts 34°
2026-05-04 16:39 -0.92378 -27.54852 22958 ft 287 kts 34°
2026-05-04 16:40 -0.88985 -27.52722 22958 ft 288 kts 34°
2026-05-04 16:40 -0.85583 -27.50586 22958 ft 289 kts 34°
2026-05-04 16:41 -0.82169 -27.48443 22958 ft 290 kts 34°
2026-05-04 16:41 -0.77031 -27.45218 22958 ft 291 kts 33°
2026-05-04 16:42 -0.71873 -27.41981 22958 ft 292 kts 33°
2026-05-04 16:43 -0.68425 -27.39816 22957 ft 293 kts 33°
2026-05-04 16:43 -0.64968 -27.37647 22958 ft 294 kts 33°
2026-05-04 16:43 -0.63237 -27.36560 22957 ft 294 kts 33°
2026-05-04 16:44 -0.56291 -27.32218 22957 ft 295 kts 33°
2026-05-04 16:45 -0.52800 -27.30052 22958 ft 296 kts 33°
2026-05-04 16:46 -0.47549 -27.26801 22957 ft 296 kts 33°
2026-05-04 16:46 -0.44044 -27.24631 22957 ft 297 kts 33°
2026-05-04 16:47 -0.40531 -27.22456 22953 ft 297 kts 33°
2026-05-04 16:47 -0.37016 -27.20282 22956 ft 297 kts 33°
2026-05-04 16:48 -0.31736 -27.17014 22957 ft 298 kts 33°
2026-05-04 16:48 -0.29975 -27.15924 22962 ft 298 kts 33°
2026-05-04 16:49 -0.26456 -27.13734 22958 ft 298 kts 33°
2026-05-04 16:49 -0.22938 -27.11533 22960 ft 298 kts 33°
2026-05-04 16:50 -0.19422 -27.09329 22957 ft 298 kts 33°
2026-05-04 16:50 -0.15904 -27.07126 22957 ft 299 kts 33°
2026-05-04 16:51 -0.12382 -27.04920 22957 ft 299 kts 33°
2026-05-04 16:51 -0.10623 -27.03818 22957 ft 299 kts 33°
2026-05-04 16:51 -0.07102 -27.01611 22957 ft 299 kts 33°
2026-05-04 16:52 -0.03582 -26.99405 22958 ft 299 kts 33°
2026-05-04 16:52 -0.01821 -26.98301 22957 ft 299 kts 33°
2026-05-04 16:53 0.01701 -26.96093 22957 ft 299 kts 34°
2026-05-04 16:53 0.06959 -26.92795 22959 ft 299 kts 34°
2026-05-04 16:54 0.08722 -26.91689 22956 ft 299 kts 34°
2026-05-04 16:55 0.15767 -26.87269 22959 ft 299 kts 34°
2026-05-04 16:55 0.19292 -26.85059 22958 ft 299 kts 34°
2026-05-04 16:56 0.22816 -26.82850 22958 ft 299 kts 34°
2026-05-04 16:56 0.28105 -26.79534 22958 ft 299 kts 34°
2026-05-04 16:57 0.29872 -26.78426 22959 ft 299 kts 34°
2026-05-04 16:57 0.33397 -26.76215 22958 ft 299 kts 34°
2026-05-04 16:58 0.38684 -26.72898 22958 ft 299 kts 34°
2026-05-04 16:58 0.40448 -26.71792 22959 ft 299 kts 34°
2026-05-04 16:59 0.43975 -26.69581 22958 ft 299 kts 34°
2026-05-04 17:00 0.51027 -26.65158 22958 ft 299 kts 34°
2026-05-04 17:00 0.56297 -26.61854 22958 ft 299 kts 34°
2026-05-04 17:01 0.59828 -26.59639 22959 ft 299 kts 34°
2026-05-04 17:01 0.63359 -26.57424 22958 ft 299 kts 34°
2026-05-04 17:02 0.66887 -26.55212 22958 ft 300 kts 34°
2026-05-04 17:02 0.70418 -26.52997 22959 ft 300 kts 34°
2026-05-04 17:03 0.72181 -26.51890 22963 ft 299 kts 34°
2026-05-04 17:03 0.73944 -26.50784 22960 ft 299 kts 34°
2026-05-04 17:03 0.77472 -26.48569 22957 ft 299 kts 34°
2026-05-04 17:04 0.81004 -26.46355 22957 ft 299 kts 34°
2026-05-04 17:04 0.84533 -26.44142 22956 ft 299 kts 34°
2026-05-04 17:05 0.88038 -26.41944 22956 ft 299 kts 34°
2026-05-04 17:05 0.91568 -26.39730 22956 ft 299 kts 34°
2026-05-04 17:06 0.95095 -26.37517 22956 ft 299 kts 34°
2026-05-04 17:06 0.96862 -26.36409 22956 ft 299 kts 34°
2026-05-04 17:07 1.00388 -26.34195 22956 ft 299 kts 34°
2026-05-04 17:07 1.01557 -26.33461 22958 ft 299 kts 34°
2026-05-04 17:07 1.03915 -26.31981 22956 ft 299 kts 34°
2026-05-04 17:07 1.05680 -26.30873 22955 ft 299 kts 34°
2026-05-04 17:08 1.07442 -26.29768 22956 ft 299 kts 34°
2026-05-04 17:08 1.10969 -26.27556 22956 ft 299 kts 34°
2026-05-04 17:08 1.12733 -26.26450 22956 ft 299 kts 34°
2026-05-04 17:09 1.14495 -26.25345 22956 ft 299 kts 34°
2026-05-04 17:09 1.16269 -26.24232 22903 ft 302 kts 34°
2026-05-04 17:09 1.18051 -26.23131 22910 ft 301 kts 33°
2026-05-04 17:10 1.21583 -26.21007 23086 ft 294 kts 32°
2026-05-04 17:10 1.26870 -26.17892 23039 ft 297 kts 32°
2026-05-04 17:11 1.28641 -26.16857 22980 ft 300 kts 32°
2026-05-04 17:11 1.30443 -26.15806 22962 ft 300 kts 32°
2026-05-04 17:11 1.34052 -26.13703 22957 ft 300 kts 32°
2026-05-04 17:12 1.35860 -26.12650 22955 ft 300 kts 32°
2026-05-04 17:12 1.39468 -26.10550 22955 ft 300 kts 32°
2026-05-04 17:13 1.44879 -26.07400 22955 ft 300 kts 32°
2026-05-04 17:14 1.50285 -26.04254 22956 ft 300 kts 32°
2026-05-04 17:14 1.52083 -26.03207 22955 ft 300 kts 32°
2026-05-04 17:14 1.55685 -26.01110 22956 ft 300 kts 32°
2026-05-04 17:15 1.57486 -26.00061 22957 ft 299 kts 32°
2026-05-04 17:15 1.61087 -25.97965 22956 ft 299 kts 32°
2026-05-04 17:16 1.64076 -25.96224 22952 ft 299 kts 32°
2026-05-04 17:16 1.69546 -25.93032 22885 ft 319 kts 32°
2026-05-04 17:17 1.71500 -25.91887 22817 ft 331 kts 32°
2026-05-04 17:17 1.77409 -25.88458 22949 ft 316 kts 32°
2026-05-04 17:18 1.79301 -25.87360 22959 ft 313 kts 32°
2026-05-04 17:18 1.83040 -25.85185 22956 ft 309 kts 32°
2026-05-04 17:19 1.86740 -25.83032 22949 ft 306 kts 32°
2026-05-04 17:19 1.90383 -25.80910 22955 ft 304 kts 32°
2026-05-04 17:20 1.94028 -25.78787 22954 ft 303 kts 32°
2026-05-04 17:20 1.97659 -25.76671 22955 ft 302 kts 32°
2026-05-04 17:20 1.99473 -25.75615 22956 ft 301 kts 32°
2026-05-04 17:21 2.03089 -25.73508 22956 ft 301 kts 32°
2026-05-04 17:21 2.06703 -25.71402 22956 ft 300 kts 32°
2026-05-04 17:22 2.08507 -25.70351 22955 ft 300 kts 32°
2026-05-04 17:22 2.10311 -25.69300 22955 ft 300 kts 32°
2026-05-04 17:23 2.15716 -25.66151 22956 ft 300 kts 32°
2026-05-04 17:23 2.17518 -25.65101 22956 ft 300 kts 32°
2026-05-04 17:23 2.21120 -25.63002 22956 ft 300 kts 32°
2026-05-04 17:24 2.22921 -25.61952 22957 ft 300 kts 32°
2026-05-04 17:24 2.28322 -25.58805 22956 ft 300 kts 32°
2026-05-04 17:25 2.30123 -25.57756 22957 ft 300 kts 32°
2026-05-04 17:25 2.33725 -25.55657 22956 ft 300 kts 32°
2026-05-04 17:26 2.37328 -25.53557 22956 ft 300 kts 32°
2026-05-04 17:26 2.42732 -25.50407 22956 ft 300 kts 32°
2026-05-04 17:27 2.46337 -25.48306 22957 ft 300 kts 32°
2026-05-04 17:27 2.49941 -25.46205 22957 ft 300 kts 32°
2026-05-04 17:28 2.53547 -25.44103 22957 ft 300 kts 32°
2026-05-04 17:29 2.58936 -25.40962 23078 ft 296 kts 32°
2026-05-04 17:29 2.64204 -25.37892 23297 ft 289 kts 32°
2026-05-04 17:30 2.69322 -25.34908 23514 ft 282 kts 32°
2026-05-04 17:31 2.72685 -25.32947 23659 ft 277 kts 32°
2026-05-04 17:31 2.77625 -25.30066 23875 ft 271 kts 32°
2026-05-04 17:32 2.80855 -25.28182 24019 ft 267 kts 32°
2026-05-04 17:33 2.85599 -25.25414 24244 ft 260 kts 32°
2026-05-04 17:33 2.87153 -25.24508 24319 ft 258 kts 32°
2026-05-04 17:34 2.91739 -25.21832 24535 ft 251 kts 32°
2026-05-04 17:34 2.93242 -25.20955 24607 ft 249 kts 32°
2026-05-04 17:35 2.97673 -25.18370 24819 ft 242 kts 32°
2026-05-04 17:35 3.00561 -25.16685 24939 ft 239 kts 32°
2026-05-04 17:35 3.01998 -25.15846 24954 ft 239 kts 32°
2026-05-04 17:36 3.03440 -25.15003 24957 ft 240 kts 32°
2026-05-04 17:36 3.04888 -25.14158 24957 ft 242 kts 32°
2026-05-04 17:36 3.06324 -25.13320 24958 ft 243 kts 32°
2026-05-04 17:36 3.07788 -25.12465 24958 ft 244 kts 32°
2026-05-04 17:37 3.09255 -25.11609 24958 ft 245 kts 32°
2026-05-04 17:37 3.10730 -25.10748 24958 ft 246 kts 32°
2026-05-04 17:37 3.12212 -25.09883 24957 ft 247 kts 32°
2026-05-04 17:37 3.13699 -25.09015 24957 ft 248 kts 32°
2026-05-04 17:38 3.15191 -25.08144 24958 ft 249 kts 32°
2026-05-04 17:38 3.16690 -25.07268 24958 ft 250 kts 32°
2026-05-04 17:38 3.18196 -25.06390 24958 ft 251 kts 32°
2026-05-04 17:38 3.19708 -25.05507 24958 ft 252 kts 32°
2026-05-04 17:39 3.22747 -25.03733 24957 ft 254 kts 32°
2026-05-04 17:39 3.24275 -25.02841 24957 ft 255 kts 32°
2026-05-04 17:39 3.25810 -25.01945 24958 ft 256 kts 32°
2026-05-04 17:40 3.27349 -25.01046 24959 ft 257 kts 32°
2026-05-04 17:40 3.28893 -25.00145 24958 ft 257 kts 32°
2026-05-04 17:40 3.30442 -24.99240 24957 ft 258 kts 32°
2026-05-04 17:40 3.31996 -24.98333 24957 ft 259 kts 32°
2026-05-04 17:41 3.33557 -24.97422 24957 ft 260 kts 32°
2026-05-04 17:41 3.35120 -24.96509 24957 ft 261 kts 32°
2026-05-04 17:41 3.36671 -24.95603 24958 ft 261 kts 32°
2026-05-04 17:41 3.38264 -24.94673 24957 ft 262 kts 32°
2026-05-04 17:42 3.39844 -24.93750 24952 ft 263 kts 32°
2026-05-04 17:42 3.41427 -24.92825 24950 ft 264 kts 32°
2026-05-04 17:42 3.42995 -24.91910 24954 ft 265 kts 32°
2026-05-04 17:42 3.44587 -24.90980 24956 ft 265 kts 32°
2026-05-04 17:43 3.46182 -24.90049 24957 ft 266 kts 32°
2026-05-04 17:43 3.47781 -24.89114 24957 ft 266 kts 32°
2026-05-04 17:43 3.49384 -24.88178 24958 ft 267 kts 32°
2026-05-04 17:43 3.50991 -24.87239 24958 ft 268 kts 32°
2026-05-04 17:44 3.52622 -24.86286 24957 ft 268 kts 32°